contact:dominique.lefevre@mio.osupytheas.fr, maurice.libes@osupytheas.fr, didier.mallarino@osupytheas.fr
Project:EMSO http://www.emso-fr.org/EMSO-France
Depth: 2436.0 m
Title:EMSO Ligure Ouest : Data MII capteur MICROCAT
DateTime_Computer,Latitude,Longitude,Temperature,Conductivity,Pressure,DateTime_Instrument
DateTime_Computer,Latitude,Longitude,degC,S m-1,dbar,DateTime_Instrument
2023-05-16T00:02:06Z,42.805,6.029,13.3018,4.60073,2470.507,2023-5-16T02:04:17Z
2023-05-16T00:05:09Z,42.805,6.029,13.3015,4.60072,2470.53,2023-5-16T02:07:20Z
2023-05-16T00:08:12Z,42.805,6.029,13.3018,4.60075,2470.544,2023-5-16T02:10:24Z
2023-05-16T00:11:15Z,42.805,6.029,13.3016,4.60073,2470.52,2023-5-16T02:13:27Z
2023-05-16T00:14:18Z,42.805,6.029,13.3015,4.60073,2470.53,2023-5-16T02:16:30Z
2023-05-16T00:17:21Z,42.805,6.029,13.3016,4.60073,2470.46,2023-5-16T02:19:33Z
2023-05-16T00:20:24Z,42.805,6.029,13.3019,4.60072,2470.567,2023-5-16T02:22:36Z
2023-05-16T00:23:27Z,42.805,6.029,13.3015,4.60072,2470.483,2023-5-16T02:25:39Z
2023-05-16T00:26:31Z,42.805,6.029,13.3015,4.60072,2470.544,2023-5-16T02:28:42Z
2023-05-16T00:29:34Z,42.805,6.029,13.3014,4.60072,2470.497,2023-5-16T02:31:45Z
2023-05-16T00:32:37Z,42.805,6.029,13.3015,4.60072,2470.52,2023-5-16T02:34:48Z
2023-05-16T00:35:40Z,42.805,6.029,13.3015,4.60072,2470.53,2023-5-16T02:37:51Z
2023-05-16T00:38:43Z,42.805,6.029,13.3014,4.60072,2470.53,2023-5-16T02:40:54Z
2023-05-16T00:41:46Z,42.805,6.029,13.3014,4.60070,2470.553,2023-5-16T02:43:57Z
2023-05-16T00:44:49Z,42.805,6.029,13.3013,4.60072,2470.544,2023-5-16T02:47:01Z
2023-05-16T00:47:52Z,42.805,6.029,13.3014,4.60074,2470.553,2023-5-16T02:50:04Z
2023-05-16T00:50:55Z,42.805,6.029,13.3018,4.60074,2470.567,2023-5-16T02:53:07Z
2023-05-16T00:53:58Z,42.805,6.029,13.3016,4.60072,2470.53,2023-5-16T02:56:10Z
2023-05-16T00:57:01Z,42.805,6.029,13.3015,4.60074,2470.544,2023-5-16T02:59:13Z
2023-05-16T01:00:04Z,42.805,6.029,13.3015,4.60073,2470.53,2023-5-16T03:02:16Z
2023-05-16T01:03:07Z,42.805,6.029,13.3014,4.60072,2470.544,2023-5-16T03:05:19Z
2023-05-16T01:06:11Z,42.805,6.029,13.3015,4.60073,2470.567,2023-5-16T03:08:22Z
2023-05-16T01:09:14Z,42.805,6.029,13.3019,4.60073,2470.53,2023-5-16T03:11:25Z
2023-05-16T01:12:17Z,42.805,6.029,13.3015,4.60074,2470.553,2023-5-16T03:14:28Z
2023-05-16T01:15:20Z,42.805,6.029,13.3018,4.60074,2470.544,2023-5-16T03:17:31Z
2023-05-16T01:18:23Z,42.805,6.029,13.3015,4.60072,2470.544,2023-5-16T03:20:34Z
2023-05-16T01:21:26Z,42.805,6.029,13.3018,4.60073,2470.553,2023-5-16T03:23:38Z
2023-05-16T01:24:29Z,42.805,6.029,13.3016,4.60072,2470.553,2023-5-16T03:26:41Z
2023-05-16T01:27:32Z,42.805,6.029,13.3014,4.60074,2470.553,2023-5-16T03:29:44Z
2023-05-16T01:30:35Z,42.805,6.029,13.3015,4.60074,2470.567,2023-5-16T03:32:47Z
2023-05-16T01:33:38Z,42.805,6.029,13.3015,4.60072,2470.553,2023-5-16T03:35:50Z
2023-05-16T01:36:41Z,42.805,6.029,13.3019,4.60072,2470.53,2023-5-16T03:38:53Z
2023-05-16T01:39:44Z,42.805,6.029,13.3017,4.60072,2470.577,2023-5-16T03:41:56Z
2023-05-16T01:42:48Z,42.805,6.029,13.3019,4.60072,2470.553,2023-5-16T03:44:59Z
2023-05-16T01:45:51Z,42.805,6.029,13.3015,4.60072,2470.591,2023-5-16T03:48:02Z
2023-05-16T01:48:54Z,42.805,6.029,13.3015,4.60073,2470.577,2023-5-16T03:51:05Z
2023-05-16T01:51:57Z,42.805,6.029,13.3018,4.60072,2470.567,2023-5-16T03:54:08Z
2023-05-16T01:55:00Z,42.805,6.029,13.3019,4.60072,2470.577,2023-5-16T03:57:11Z
2023-05-16T01:58:03Z,42.805,6.029,13.3017,4.60073,2470.553,2023-5-16T04:00:15Z
2023-05-16T02:01:06Z,42.805,6.029,13.3017,4.60072,2470.6,2023-5-16T04:03:18Z
2023-05-16T02:04:09Z,42.805,6.029,13.3017,4.60072,2470.577,2023-5-16T04:06:21Z
2023-05-16T02:07:12Z,42.805,6.029,13.3015,4.60072,2470.624,2023-5-16T04:09:24Z
2023-05-16T02:10:15Z,42.805,6.029,13.3015,4.60072,2470.6,2023-5-16T04:12:27Z
2023-05-16T02:13:18Z,42.805,6.029,13.3017,4.60072,2470.577,2023-5-16T04:15:30Z
2023-05-16T02:16:21Z,42.805,6.029,13.3017,4.60073,2470.553,2023-5-16T04:18:33Z
2023-05-16T02:19:25Z,42.805,6.029,13.3015,4.60074,2470.591,2023-5-16T04:21:36Z
2023-05-16T02:22:28Z,42.805,6.029,13.3016,4.60072,2470.6,2023-5-16T04:24:39Z
2023-05-16T02:25:31Z,42.805,6.029,13.3017,4.60073,2470.6,2023-5-16T04:27:42Z
2023-05-16T02:28:34Z,42.805,6.029,13.3015,4.60074,2470.624,2023-5-16T04:30:45Z
2023-05-16T02:31:37Z,42.805,6.029,13.3015,4.60073,2470.614,2023-5-16T04:33:48Z
2023-05-16T02:34:40Z,42.805,6.029,13.3015,4.60072,2470.6,2023-5-16T04:36:51Z
2023-05-16T02:37:43Z,42.805,6.029,13.3014,4.60074,2470.624,2023-5-16T04:39:55Z
2023-05-16T02:40:46Z,42.805,6.029,13.3018,4.60072,2470.591,2023-5-16T04:42:58Z
2023-05-16T02:43:49Z,42.805,6.029,13.3014,4.60072,2470.6,2023-5-16T04:46:01Z
2023-05-16T02:46:52Z,42.805,6.029,13.3015,4.60073,2470.6,2023-5-16T04:49:04Z
2023-05-16T02:49:55Z,42.805,6.029,13.3016,4.60074,2470.637,2023-5-16T04:52:07Z
2023-05-16T02:52:58Z,42.805,6.029,13.3019,4.60073,2470.624,2023-5-16T04:55:10Z
2023-05-16T02:56:01Z,42.805,6.029,13.3015,4.60076,2470.637,2023-5-16T04:58:13Z
2023-05-16T02:59:05Z,42.805,6.029,13.3014,4.60074,2470.624,2023-5-16T05:01:16Z
2023-05-16T03:02:08Z,42.805,6.029,13.3019,4.60072,2470.637,2023-5-16T05:04:19Z
2023-05-16T03:05:11Z,42.805,6.029,13.3012,4.60075,2470.661,2023-5-16T05:07:22Z
2023-05-16T03:08:14Z,42.805,6.029,13.3018,4.60072,2470.624,2023-5-16T05:10:25Z
2023-05-16T03:11:17Z,42.805,6.029,13.3015,4.60076,2470.624,2023-5-16T05:13:28Z
2023-05-16T03:14:20Z,42.805,6.029,13.3018,4.60075,2470.637,2023-5-16T05:16:32Z
2023-05-16T03:17:23Z,42.805,6.029,13.3017,4.60072,2470.67,2023-5-16T05:19:35Z
2023-05-16T03:20:26Z,42.805,6.029,13.3017,4.60074,2470.646,2023-5-16T05:22:38Z
2023-05-16T03:23:29Z,42.805,6.029,13.3014,4.60070,2470.624,2023-5-16T05:25:41Z
2023-05-16T03:26:32Z,42.805,6.029,13.3013,4.60077,2470.624,2023-5-16T05:28:44Z
2023-05-16T03:29:35Z,42.805,6.029,13.3017,4.60076,2470.67,2023-5-16T05:31:47Z
2023-05-16T03:32:39Z,42.805,6.029,13.3021,4.60073,2470.646,2023-5-16T05:34:50Z
2023-05-16T03:35:42Z,42.805,6.029,13.3017,4.60074,2470.67,2023-5-16T05:37:53Z
2023-05-16T03:38:45Z,42.805,6.029,13.3015,4.60074,2470.646,2023-5-16T05:40:56Z
2023-05-16T03:41:48Z,42.805,6.029,13.3019,4.60075,2470.646,2023-5-16T05:43:59Z
2023-05-16T03:44:51Z,42.805,6.029,13.3018,4.60073,2470.661,2023-5-16T05:47:02Z
2023-05-16T03:47:54Z,42.805,6.029,13.3014,4.60074,2470.637,2023-5-16T05:50:05Z
2023-05-16T03:50:57Z,42.805,6.029,13.3019,4.60075,2470.67,2023-5-16T05:53:09Z
2023-05-16T03:54:00Z,42.805,6.029,13.3021,4.60074,2470.646,2023-5-16T05:56:12Z
2023-05-16T03:57:03Z,42.805,6.029,13.3012,4.60072,2470.661,2023-5-16T05:59:15Z
2023-05-16T04:00:06Z,42.805,6.029,13.3019,4.60074,2470.661,2023-5-16T06:02:18Z
2023-05-16T04:03:09Z,42.805,6.029,13.3018,4.60073,2470.661,2023-5-16T06:05:21Z
2023-05-16T04:06:12Z,42.805,6.029,13.3018,4.60079,2470.684,2023-5-16T06:08:24Z
2023-05-16T04:09:15Z,42.805,6.029,13.3019,4.60076,2470.67,2023-5-16T06:11:27Z
2023-05-16T04:12:19Z,42.805,6.029,13.3022,4.60072,2470.637,2023-5-16T06:14:30Z
2023-05-16T04:15:22Z,42.805,6.029,13.3017,4.60078,2470.684,2023-5-16T06:17:33Z
2023-05-16T04:18:25Z,42.805,6.029,13.3015,4.60074,2470.661,2023-5-16T06:20:36Z
2023-05-16T04:21:28Z,42.805,6.029,13.3017,4.60074,2470.646,2023-5-16T06:23:39Z
2023-05-16T04:24:31Z,42.805,6.029,13.3016,4.60072,2470.67,2023-5-16T06:26:42Z
2023-05-16T04:27:34Z,42.805,6.029,13.3016,4.60072,2470.684,2023-5-16T06:29:45Z
2023-05-16T04:30:37Z,42.805,6.029,13.3018,4.60070,2470.684,2023-5-16T06:32:49Z
2023-05-16T04:33:40Z,42.805,6.029,13.3019,4.60072,2470.661,2023-5-16T06:35:52Z
2023-05-16T04:36:43Z,42.805,6.029,13.3016,4.60070,2470.67,2023-5-16T06:38:55Z
2023-05-16T04:39:46Z,42.805,6.029,13.3019,4.60071,2470.67,2023-5-16T06:41:58Z
2023-05-16T04:42:49Z,42.805,6.029,13.3017,4.60072,2470.684,2023-5-16T06:45:01Z
2023-05-16T04:45:52Z,42.805,6.029,13.3015,4.60070,2470.661,2023-5-16T06:48:04Z
2023-05-16T04:48:56Z,42.805,6.029,13.3014,4.60072,2470.646,2023-5-16T06:51:07Z
2023-05-16T04:51:59Z,42.805,6.029,13.3017,4.60072,2470.67,2023-5-16T06:54:10Z
2023-05-16T04:55:02Z,42.805,6.029,13.3015,4.60072,2470.693,2023-5-16T06:57:13Z
2023-05-16T04:58:05Z,42.805,6.029,13.3014,4.60072,2470.693,2023-5-16T07:00:16Z
2023-05-16T05:01:08Z,42.805,6.029,13.3015,4.60070,2470.717,2023-5-16T07:03:19Z
2023-05-16T05:04:11Z,42.805,6.029,13.3009,4.60071,2470.67,2023-5-16T07:06:22Z
2023-05-16T05:07:14Z,42.805,6.029,13.3015,4.60074,2470.684,2023-5-16T07:09:26Z
2023-05-16T05:10:17Z,42.805,6.029,13.3015,4.60071,2470.67,2023-5-16T07:12:29Z
2023-05-16T05:13:20Z,42.805,6.029,13.3020,4.60072,2470.646,2023-5-16T07:15:32Z
2023-05-16T05:16:23Z,42.805,6.029,13.3018,4.60072,2470.693,2023-5-16T07:18:35Z
2023-05-16T05:19:26Z,42.805,6.029,13.3015,4.60072,2470.646,2023-5-16T07:21:38Z
2023-05-16T05:22:29Z,42.805,6.029,13.3015,4.60070,2470.684,2023-5-16T07:24:41Z
2023-05-16T05:25:32Z,42.805,6.029,13.3016,4.60072,2470.67,2023-5-16T07:27:44Z
2023-05-16T05:28:36Z,42.805,6.029,13.3015,4.60074,2470.684,2023-5-16T07:30:47Z
2023-05-16T05:31:39Z,42.805,6.029,13.3021,4.60072,2470.693,2023-5-16T07:33:50Z
2023-05-16T05:34:42Z,42.805,6.029,13.3012,4.60072,2470.67,2023-5-16T07:36:53Z
2023-05-16T05:37:45Z,42.805,6.029,13.3016,4.60074,2470.646,2023-5-16T07:39:56Z
2023-05-16T05:40:48Z,42.805,6.029,13.3014,4.60074,2470.67,2023-5-16T07:42:59Z
2023-05-16T05:43:51Z,42.805,6.029,13.3014,4.60073,2470.67,2023-5-16T07:46:03Z
2023-05-16T05:46:54Z,42.805,6.029,13.3014,4.60074,2470.67,2023-5-16T07:49:06Z
2023-05-16T05:49:57Z,42.805,6.029,13.3019,4.60069,2470.661,2023-5-16T07:52:09Z
2023-05-16T05:53:00Z,42.805,6.029,13.3014,4.60075,2470.661,2023-5-16T07:55:12Z
2023-05-16T05:56:03Z,42.805,6.029,13.3017,4.60071,2470.717,2023-5-16T07:58:15Z
2023-05-16T05:59:06Z,42.805,6.029,13.3014,4.60072,2470.693,2023-5-16T08:01:18Z
2023-05-16T06:02:09Z,42.805,6.029,13.3013,4.60069,2470.661,2023-5-16T08:04:21Z
2023-05-16T06:05:13Z,42.805,6.029,13.3015,4.60072,2470.67,2023-5-16T08:07:24Z
2023-05-16T06:08:16Z,42.805,6.029,13.3016,4.60072,2470.67,2023-5-16T08:10:27Z
2023-05-16T06:11:19Z,42.805,6.029,13.3015,4.60070,2470.661,2023-5-16T08:13:30Z
2023-05-16T06:14:22Z,42.805,6.029,13.3011,4.60069,2470.693,2023-5-16T08:16:33Z
2023-05-16T06:17:25Z,42.805,6.029,13.3015,4.60074,2470.684,2023-5-16T08:19:36Z
2023-05-16T06:20:28Z,42.805,6.029,13.3018,4.60074,2470.646,2023-5-16T08:22:40Z
2023-05-16T06:23:31Z,42.805,6.029,13.3019,4.60072,2470.67,2023-5-16T08:25:43Z
2023-05-16T06:26:34Z,42.805,6.029,13.3015,4.60070,2470.646,2023-5-16T08:28:46Z
2023-05-16T06:29:37Z,42.805,6.029,13.3016,4.60073,2470.684,2023-5-16T08:31:49Z
2023-05-16T06:32:39Z,42.805,6.029,13.3015,4.60072,2470.67,2023-5-16T08:34:50Z
2023-05-16T06:35:42Z,42.805,6.029,13.3014,4.60072,2470.646,2023-5-16T08:37:53Z
2023-05-16T06:38:45Z,42.805,6.029,13.3018,4.60073,2470.633,2023-5-16T08:40:57Z
2023-05-16T06:41:48Z,42.805,6.029,13.3019,4.60072,2470.646,2023-5-16T08:44:00Z
2023-05-16T06:44:51Z,42.805,6.029,13.3016,4.60069,2470.624,2023-5-16T08:47:03Z
2023-05-16T06:47:54Z,42.805,6.029,13.3014,4.60072,2470.637,2023-5-16T08:50:06Z
2023-05-16T06:50:57Z,42.805,6.029,13.3014,4.60070,2470.624,2023-5-16T08:53:09Z
2023-05-16T06:54:00Z,42.805,6.029,13.3012,4.60070,2470.624,2023-5-16T08:56:12Z
2023-05-16T06:57:03Z,42.805,6.029,13.3014,4.60076,2470.646,2023-5-16T08:59:15Z
2023-05-16T07:00:07Z,42.805,6.029,13.3018,4.60072,2470.624,2023-5-16T09:02:18Z
2023-05-16T07:03:10Z,42.805,6.029,13.3013,4.60069,2470.646,2023-5-16T09:05:21Z
2023-05-16T07:06:13Z,42.805,6.029,13.3014,4.60074,2470.637,2023-5-16T09:08:24Z
2023-05-16T07:09:16Z,42.805,6.029,13.3016,4.60070,2470.637,2023-5-16T09:11:27Z
2023-05-16T07:12:19Z,42.805,6.029,13.3014,4.60069,2470.624,2023-5-16T09:14:30Z
2023-05-16T07:15:22Z,42.805,6.029,13.3015,4.60074,2470.6,2023-5-16T09:17:34Z
2023-05-16T07:18:25Z,42.805,6.029,13.3014,4.60070,2470.624,2023-5-16T09:20:37Z
2023-05-16T07:21:28Z,42.805,6.029,13.3016,4.60071,2470.6,2023-5-16T09:23:40Z
2023-05-16T07:24:31Z,42.805,6.029,13.3013,4.60069,2470.661,2023-5-16T09:26:43Z
2023-05-16T07:27:34Z,42.805,6.029,13.3018,4.60069,2470.614,2023-5-16T09:29:46Z
2023-05-16T07:30:37Z,42.805,6.029,13.3017,4.60071,2470.6,2023-5-16T09:32:49Z
2023-05-16T07:33:40Z,42.805,6.029,13.3015,4.60070,2470.624,2023-5-16T09:35:52Z
2023-05-16T07:36:44Z,42.805,6.029,13.3015,4.60071,2470.577,2023-5-16T09:38:55Z
2023-05-16T07:39:47Z,42.805,6.029,13.3015,4.60072,2470.661,2023-5-16T09:41:58Z
2023-05-16T07:42:50Z,42.805,6.029,13.3014,4.60072,2470.591,2023-5-16T09:45:01Z
2023-05-16T07:45:53Z,42.805,6.029,13.3015,4.60070,2470.624,2023-5-16T09:48:04Z
2023-05-16T07:48:56Z,42.805,6.029,13.3014,4.60074,2470.577,2023-5-16T09:51:07Z
2023-05-16T07:51:59Z,42.805,6.029,13.3015,4.60072,2470.6,2023-5-16T09:54:11Z
2023-05-16T07:55:02Z,42.805,6.029,13.3017,4.60075,2470.6,2023-5-16T09:57:14Z
2023-05-16T07:58:05Z,42.805,6.029,13.3015,4.60069,2470.577,2023-5-16T10:00:17Z
2023-05-16T08:01:08Z,42.805,6.029,13.3015,4.60071,2470.577,2023-5-16T10:03:20Z
2023-05-16T08:04:11Z,42.805,6.029,13.3014,4.60072,2470.6,2023-5-16T10:06:23Z
2023-05-16T08:07:14Z,42.805,6.029,13.3015,4.60069,2470.6,2023-5-16T10:09:26Z
2023-05-16T08:10:17Z,42.805,6.029,13.3018,4.60074,2470.6,2023-5-16T10:12:29Z
2023-05-16T08:13:21Z,42.805,6.029,13.3012,4.60072,2470.577,2023-5-16T10:15:32Z
2023-05-16T08:16:24Z,42.805,6.029,13.3016,4.60073,2470.577,2023-5-16T10:18:35Z
2023-05-16T08:19:27Z,42.805,6.029,13.3014,4.60071,2470.624,2023-5-16T10:21:38Z
2023-05-16T08:22:30Z,42.805,6.029,13.3013,4.60072,2470.591,2023-5-16T10:24:41Z
2023-05-16T08:25:33Z,42.805,6.029,13.3017,4.60070,2470.577,2023-5-16T10:27:44Z
2023-05-16T08:28:36Z,42.805,6.029,13.3014,4.60069,2470.553,2023-5-16T10:30:48Z
2023-05-16T08:31:37Z,42.805,6.029,13.3016,4.60071,2470.591,2023-5-16T10:33:49Z
2023-05-16T08:34:41Z,42.805,6.029,13.3014,4.60072,2470.553,2023-5-16T10:36:52Z
2023-05-16T08:37:44Z,42.805,6.029,13.3014,4.60070,2470.553,2023-5-16T10:39:55Z
2023-05-16T08:40:47Z,42.805,6.029,13.3016,4.60075,2470.577,2023-5-16T10:42:58Z
2023-05-16T08:43:50Z,42.805,6.029,13.3014,4.60070,2470.6,2023-5-16T10:46:01Z
2023-05-16T08:46:53Z,42.805,6.029,13.3019,4.60071,2470.567,2023-5-16T10:49:04Z
2023-05-16T08:49:56Z,42.805,6.029,13.3017,4.60072,2470.544,2023-5-16T10:52:08Z
2023-05-16T08:52:59Z,42.805,6.029,13.3015,4.60070,2470.553,2023-5-16T10:55:11Z
2023-05-16T08:56:02Z,42.805,6.029,13.3019,4.60072,2470.553,2023-5-16T10:58:14Z
2023-05-16T08:59:05Z,42.805,6.029,13.3017,4.60074,2470.53,2023-5-16T11:01:17Z
2023-05-16T09:02:08Z,42.805,6.029,13.3018,4.60072,2470.544,2023-5-16T11:04:20Z
2023-05-16T09:05:11Z,42.805,6.029,13.3014,4.60070,2470.567,2023-5-16T11:07:23Z
2023-05-16T09:08:15Z,42.805,6.029,13.3016,4.60073,2470.516,2023-5-16T11:10:26Z
2023-05-16T09:11:18Z,42.805,6.029,13.3016,4.60072,2470.507,2023-5-16T11:13:29Z
2023-05-16T09:14:21Z,42.805,6.029,13.3013,4.60069,2470.544,2023-5-16T11:16:32Z
2023-05-16T09:17:24Z,42.805,6.029,13.3014,4.60070,2470.53,2023-5-16T11:19:35Z
2023-05-16T09:20:27Z,42.805,6.029,13.3016,4.60070,2470.53,2023-5-16T11:22:38Z
2023-05-16T09:23:30Z,42.805,6.029,13.3015,4.60075,2470.53,2023-5-16T11:25:42Z
2023-05-16T09:26:33Z,42.805,6.029,13.3019,4.60074,2470.53,2023-5-16T11:28:45Z
2023-05-16T09:29:36Z,42.805,6.029,13.3014,4.60074,2470.52,2023-5-16T11:31:48Z
2023-05-16T09:32:39Z,42.805,6.029,13.3019,4.60072,2470.507,2023-5-16T11:34:51Z
2023-05-16T09:35:42Z,42.805,6.029,13.3014,4.60072,2470.544,2023-5-16T11:37:54Z
2023-05-16T09:38:45Z,42.805,6.029,13.3014,4.60070,2470.507,2023-5-16T11:40:57Z
2023-05-16T09:41:48Z,42.805,6.029,13.3018,4.60073,2470.53,2023-5-16T11:44:00Z
2023-05-16T09:44:52Z,42.805,6.029,13.3017,4.60070,2470.53,2023-5-16T11:47:03Z
2023-05-16T09:47:55Z,42.805,6.029,13.3011,4.60073,2470.53,2023-5-16T11:50:06Z
2023-05-16T09:50:58Z,42.805,6.029,13.3014,4.60069,2470.507,2023-5-16T11:53:09Z
2023-05-16T09:54:01Z,42.805,6.029,13.3015,4.60070,2470.507,2023-5-16T11:56:12Z
2023-05-16T09:57:04Z,42.805,6.029,13.3015,4.60069,2470.52,2023-5-16T11:59:15Z
2023-05-16T10:00:07Z,42.805,6.029,13.3015,4.60073,2470.497,2023-5-16T12:02:19Z
2023-05-16T10:03:10Z,42.805,6.029,13.3018,4.60069,2470.52,2023-5-16T12:05:22Z
2023-05-16T10:06:13Z,42.805,6.029,13.3015,4.60069,2470.507,2023-5-16T12:08:25Z
2023-05-16T10:09:16Z,42.805,6.029,13.3015,4.60069,2470.483,2023-5-16T12:11:28Z
2023-05-16T10:12:19Z,42.805,6.029,13.3016,4.60070,2470.52,2023-5-16T12:14:31Z
2023-05-16T10:15:22Z,42.805,6.029,13.3017,4.60073,2470.53,2023-5-16T12:17:34Z
2023-05-16T10:18:25Z,42.805,6.029,13.3019,4.60073,2470.52,2023-5-16T12:20:37Z
2023-05-16T10:21:29Z,42.805,6.029,13.3017,4.60069,2470.47,2023-5-16T12:23:40Z
2023-05-16T10:24:32Z,42.805,6.029,13.3016,4.60073,2470.507,2023-5-16T12:26:43Z
2023-05-16T10:27:35Z,42.805,6.029,13.3015,4.60070,2470.53,2023-5-16T12:29:46Z
2023-05-16T10:30:38Z,42.805,6.029,13.3015,4.60072,2470.483,2023-5-16T12:32:49Z
2023-05-16T10:33:41Z,42.805,6.029,13.3017,4.60072,2470.46,2023-5-16T12:35:52Z
2023-05-16T10:36:44Z,42.805,6.029,13.3014,4.60070,2470.437,2023-5-16T12:38:56Z
2023-05-16T10:39:47Z,42.805,6.029,13.3014,4.60069,2470.47,2023-5-16T12:41:59Z
2023-05-16T10:42:50Z,42.805,6.029,13.3018,4.60073,2470.483,2023-5-16T12:45:02Z
2023-05-16T10:45:53Z,42.805,6.029,13.3013,4.60074,2470.474,2023-5-16T12:48:05Z
2023-05-16T10:48:56Z,42.805,6.029,13.3016,4.60072,2470.507,2023-5-16T12:51:08Z
2023-05-16T10:51:59Z,42.805,6.029,13.3015,4.60072,2470.483,2023-5-16T12:54:11Z
2023-05-16T10:55:03Z,42.805,6.029,13.3017,4.60070,2470.52,2023-5-16T12:57:14Z
2023-05-16T10:58:06Z,42.805,6.029,13.3014,4.60072,2470.483,2023-5-16T13:00:17Z
2023-05-16T11:01:09Z,42.805,6.029,13.3014,4.60072,2470.483,2023-5-16T13:03:20Z
2023-05-16T11:04:12Z,42.805,6.029,13.3017,4.60072,2470.52,2023-5-16T13:06:23Z
2023-05-16T11:07:15Z,42.805,6.029,13.3019,4.60072,2470.47,2023-5-16T13:09:26Z
2023-05-16T11:10:18Z,42.805,6.029,13.3016,4.60073,2470.483,2023-5-16T13:12:30Z
2023-05-16T11:13:21Z,42.805,6.029,13.3013,4.60073,2470.483,2023-5-16T13:15:33Z
2023-05-16T11:16:24Z,42.805,6.029,13.3018,4.60071,2470.46,2023-5-16T13:18:36Z
2023-05-16T11:19:27Z,42.805,6.029,13.3014,4.60072,2470.507,2023-5-16T13:21:39Z
2023-05-16T11:22:30Z,42.805,6.029,13.3015,4.60072,2470.497,2023-5-16T13:24:42Z
2023-05-16T11:25:33Z,42.805,6.029,13.3018,4.60069,2470.507,2023-5-16T13:27:45Z
2023-05-16T11:28:36Z,42.805,6.029,13.3011,4.60074,2470.483,2023-5-16T13:30:48Z
2023-05-16T11:31:40Z,42.805,6.029,13.3014,4.60071,2470.483,2023-5-16T13:33:51Z
2023-05-16T11:34:43Z,42.805,6.029,13.3015,4.60070,2470.483,2023-5-16T13:36:54Z
2023-05-16T11:37:46Z,42.805,6.029,13.3016,4.60072,2470.483,2023-5-16T13:39:57Z
2023-05-16T11:40:49Z,42.805,6.029,13.3013,4.60069,2470.47,2023-5-16T13:43:00Z
2023-05-16T11:43:52Z,42.805,6.029,13.3018,4.60070,2470.53,2023-5-16T13:46:04Z
2023-05-16T11:46:55Z,42.805,6.029,13.3014,4.60070,2470.46,2023-5-16T13:49:07Z
2023-05-16T11:49:58Z,42.805,6.029,13.3015,4.60072,2470.483,2023-5-16T13:52:10Z
2023-05-16T11:53:01Z,42.805,6.029,13.3019,4.60074,2470.474,2023-5-16T13:55:13Z
2023-05-16T11:56:04Z,42.805,6.029,13.3015,4.60069,2470.446,2023-5-16T13:58:16Z
2023-05-16T11:59:07Z,42.805,6.029,13.3013,4.60074,2470.497,2023-5-16T14:01:19Z
2023-05-16T12:02:10Z,42.805,6.029,13.3014,4.60072,2470.497,2023-5-16T14:04:22Z
2023-05-16T12:05:14Z,42.805,6.029,13.3015,4.60071,2470.46,2023-5-16T14:07:25Z
2023-05-16T12:08:17Z,42.805,6.029,13.3014,4.60073,2470.46,2023-5-16T14:10:28Z
2023-05-16T12:11:20Z,42.805,6.029,13.3017,4.60070,2470.483,2023-5-16T14:13:31Z
2023-05-16T12:14:23Z,42.805,6.029,13.3014,4.60073,2470.497,2023-5-16T14:16:34Z
2023-05-16T12:17:26Z,42.805,6.029,13.3016,4.60073,2470.483,2023-5-16T14:19:37Z
2023-05-16T12:20:29Z,42.805,6.029,13.3015,4.60074,2470.46,2023-5-16T14:22:41Z
2023-05-16T12:23:32Z,42.805,6.029,13.3015,4.60069,2470.483,2023-5-16T14:25:44Z
2023-05-16T12:26:35Z,42.805,6.029,13.3014,4.60073,2470.507,2023-5-16T14:28:47Z
2023-05-16T12:29:38Z,42.805,6.029,13.3015,4.60074,2470.483,2023-5-16T14:31:50Z
2023-05-16T12:32:41Z,42.805,6.029,13.3017,4.60075,2470.497,2023-5-16T14:34:53Z
2023-05-16T12:35:44Z,42.805,6.029,13.3016,4.60073,2470.507,2023-5-16T14:37:56Z
2023-05-16T12:38:47Z,42.805,6.029,13.3019,4.60077,2470.52,2023-5-16T14:40:59Z
2023-05-16T12:41:51Z,42.805,6.029,13.3018,4.60074,2470.507,2023-5-16T14:44:02Z
2023-05-16T12:44:54Z,42.805,6.029,13.3017,4.60074,2470.483,2023-5-16T14:47:05Z
2023-05-16T12:47:57Z,42.805,6.029,13.3011,4.60074,2470.483,2023-5-16T14:50:08Z
2023-05-16T12:51:00Z,42.805,6.029,13.3014,4.60076,2470.483,2023-5-16T14:53:11Z
2023-05-16T12:54:03Z,42.805,6.029,13.3015,4.60074,2470.483,2023-5-16T14:56:14Z
2023-05-16T12:57:06Z,42.805,6.029,13.3018,4.60074,2470.483,2023-5-16T14:59:18Z
2023-05-16T13:00:09Z,42.805,6.029,13.3015,4.60075,2470.497,2023-5-16T15:02:21Z
2023-05-16T13:03:12Z,42.805,6.029,13.3015,4.60072,2470.52,2023-5-16T15:05:24Z
2023-05-16T13:06:15Z,42.805,6.029,13.3017,4.60072,2470.507,2023-5-16T15:08:27Z
2023-05-16T13:09:18Z,42.805,6.029,13.3018,4.60070,2470.497,2023-5-16T15:11:30Z
2023-05-16T13:12:21Z,42.805,6.029,13.3018,4.60072,2470.544,2023-5-16T15:14:33Z
2023-05-16T13:15:24Z,42.805,6.029,13.3018,4.60072,2470.544,2023-5-16T15:17:36Z
2023-05-16T13:18:28Z,42.805,6.029,13.3017,4.60070,2470.544,2023-5-16T15:20:39Z
2023-05-16T13:21:31Z,42.805,6.029,13.3019,4.60074,2470.483,2023-5-16T15:23:42Z
2023-05-16T13:24:34Z,42.805,6.029,13.3016,4.60072,2470.544,2023-5-16T15:26:45Z
2023-05-16T13:27:37Z,42.805,6.029,13.3020,4.60072,2470.544,2023-5-16T15:29:48Z
2023-05-16T13:30:40Z,42.805,6.029,13.3017,4.60072,2470.544,2023-5-16T15:32:51Z
2023-05-16T13:33:43Z,42.805,6.029,13.3014,4.60072,2470.53,2023-5-16T15:35:55Z
2023-05-16T13:36:46Z,42.805,6.029,13.3017,4.60072,2470.507,2023-5-16T15:38:58Z
2023-05-16T13:39:49Z,42.805,6.029,13.3013,4.60072,2470.544,2023-5-16T15:42:01Z
2023-05-16T13:42:52Z,42.805,6.029,13.3018,4.60072,2470.507,2023-5-16T15:45:04Z
2023-05-16T13:45:55Z,42.805,6.029,13.3017,4.60074,2470.577,2023-5-16T15:48:07Z
2023-05-16T13:48:58Z,42.805,6.029,13.3011,4.60072,2470.544,2023-5-16T15:51:10Z
2023-05-16T13:52:02Z,42.805,6.029,13.3017,4.60074,2470.516,2023-5-16T15:54:13Z
2023-05-16T13:55:05Z,42.805,6.029,13.3013,4.60075,2470.544,2023-5-16T15:57:16Z
2023-05-16T13:58:08Z,42.805,6.029,13.3014,4.60074,2470.553,2023-5-16T16:00:19Z
2023-05-16T14:01:11Z,42.805,6.029,13.3018,4.60073,2470.544,2023-5-16T16:03:22Z
2023-05-16T14:04:14Z,42.805,6.029,13.3015,4.60073,2470.553,2023-5-16T16:06:25Z
2023-05-16T14:07:17Z,42.805,6.029,13.3017,4.60072,2470.553,2023-5-16T16:09:29Z
2023-05-16T14:10:20Z,42.805,6.029,13.3018,4.60074,2470.567,2023-5-16T16:12:32Z
2023-05-16T14:13:23Z,42.805,6.029,13.3015,4.60074,2470.577,2023-5-16T16:15:35Z
2023-05-16T14:16:26Z,42.805,6.029,13.3012,4.60074,2470.567,2023-5-16T16:18:38Z
2023-05-16T14:19:29Z,42.805,6.029,13.3015,4.60072,2470.577,2023-5-16T16:21:41Z
2023-05-16T14:22:32Z,42.805,6.029,13.3011,4.60073,2470.567,2023-5-16T16:24:44Z
2023-05-16T14:25:35Z,42.805,6.029,13.3017,4.60072,2470.624,2023-5-16T16:27:47Z
2023-05-16T14:28:39Z,42.805,6.029,13.3015,4.60076,2470.553,2023-5-16T16:30:50Z
2023-05-16T14:31:43Z,42.805,6.029,13.3014,4.60073,2470.577,2023-5-16T16:33:54Z
2023-05-16T14:34:46Z,42.805,6.029,13.3015,4.60072,2470.553,2023-5-16T16:36:57Z
2023-05-16T14:37:49Z,42.805,6.029,13.3018,4.60077,2470.591,2023-5-16T16:40:01Z
2023-05-16T14:40:52Z,42.805,6.029,13.3017,4.60075,2470.591,2023-5-16T16:43:04Z
2023-05-16T14:43:55Z,42.805,6.029,13.3014,4.60075,2470.591,2023-5-16T16:46:07Z
2023-05-16T14:46:58Z,42.805,6.029,13.3015,4.60076,2470.577,2023-5-16T16:49:10Z
2023-05-16T14:50:01Z,42.805,6.029,13.3016,4.60073,2470.614,2023-5-16T16:52:13Z
2023-05-16T14:53:04Z,42.805,6.029,13.3016,4.60074,2470.577,2023-5-16T16:55:16Z
2023-05-16T14:56:07Z,42.805,6.029,13.3015,4.60075,2470.6,2023-5-16T16:58:19Z
2023-05-16T14:59:11Z,42.805,6.029,13.3014,4.60074,2470.591,2023-5-16T17:01:22Z
2023-05-16T15:02:14Z,42.805,6.029,13.3015,4.60076,2470.591,2023-5-16T17:04:25Z
2023-05-16T15:05:17Z,42.805,6.029,13.3018,4.60074,2470.6,2023-5-16T17:07:28Z
2023-05-16T15:08:20Z,42.805,6.029,13.3015,4.60072,2470.6,2023-5-16T17:10:31Z
2023-05-16T15:11:23Z,42.805,6.029,13.3017,4.60077,2470.591,2023-5-16T17:13:34Z
2023-05-16T15:14:26Z,42.805,6.029,13.3017,4.60076,2470.6,2023-5-16T17:16:37Z